EW7827 Weather Reports


time (UTC)temp
C
wind
direction
speed
KPH
gust
KPH
rain 1hr
cm
rain 24hr
cm
rain mn
cm
humidity
%
barometer
mb
20260906172020 35 45 3.2 8.0 0.00 0.00 0.00 47 1017.5
20260906171022 36 135 4.8 8.0 0.00 0.00 0.00 48 1017.7
20260906170022 36 158 3.2 11.3 0.00 0.00 0.00 48 1017.9
20260906165022 35 248 3.2 4.8 0.00 0.00 0.00 49 1017.9
20260906164022 35 315 4.8 12.9 0.00 0.00 0.00 49 1018.0
20260906163022 35 203 3.2 8.0 0.00 0.00 0.00 49 1018.1
20260906162022 35 293 1.6 8.0 0.00 0.00 0.00 50 1018.0
20260906161022 34 203 3.2 8.0 0.00 0.00 0.00 52 1017.9
20260906160042 33 68 4.8 9.7 0.00 0.00 0.00 54 1017.9
20260906155022 33 203 6.4 17.7 0.00 0.00 0.00 54 1017.8
20260906154022 33 45 3.2 9.7 0.00 0.00 0.00 55 1017.7
20260906153022 32 158 3.2 8.0 0.00 0.00 0.00 57 1017.6
20260906152022 32 113 6.4 12.9 0.00 0.00 0.00 57 1017.7
20260906151022 32 338 3.2 8.0 0.00 0.00 0.00 59 1017.6
20260906150021 31 158 3.2 9.7 0.00 0.00 0.00 60 1017.6
20260906145021 31 23 3.2 11.3 0.00 0.00 0.00 61 1017.6
20260906144042 31 135 4.8 11.3 0.00 0.00 0.00 60 1017.7
20260906143021 31 158 3.2 9.7 0.00 0.00 0.00 62 1017.8
20260906142022 30 90 3.2 8.0 0.00 0.00 0.00 62 1017.6
20260906141041 30 23 1.6 4.8 0.00 0.00 0.00 63 1017.6
20260906140022 30 68 3.2 6.4 0.00 0.00 0.00 63 1017.5
20260906135022 29 113 1.6 4.8 0.00 0.00 0.00 65 1017.4
20260906134122 28 23 1.6 6.4 0.00 0.00 0.00 66 1017.4
20260906133021 28 135 3.2 8.0 0.00 0.00 0.00 68 1017.2
20260906132021 27 135 1.6 4.8 0.00 0.00 0.00 71 1017.0
20260906131101 26 113 3.2 6.4 0.00 0.00 0.00 72 1016.8
20260906130022 26 113 3.2 9.7 0.00 0.00 0.00 73 1016.8
20260906125041 26 135 1.6 6.4 0.00 0.00 0.00 74 1016.7
20260906124021 26 135 1.6 3.2 0.00 0.00 0.00 75 1016.5
20260906123021 26 0.0 1.6 0.00 0.00 0.00 75 1016.6
20260906122021 26 0.0 3.2 0.00 0.00 0.00 75 1016.5
20260906121021 26 135 1.6 3.2 0.00 0.00 0.00 75 1016.3
20260906120021 26 135 1.6 3.2 0.00 0.00 0.00 75 1016.3
20260906115021 26 135 1.6 1.6 0.00 0.00 0.00 75 1016.5
20260906114021 26 135 1.6 3.2 0.00 0.00 0.00 75 1016.4
20260906113021 26 135 1.6 4.8 0.00 0.00 0.00 75 1016.4
20260906112021 26 135 1.6 3.2 0.00 0.00 0.00 75 1016.3
20260906111021 26 0.0 3.2 0.00 0.00 0.00 75 1016.2
20260906110041 26 135 1.6 3.2 0.00 0.00 0.00 75 1016.2
20260906105021 26 135 1.6 3.2 0.00 0.00 0.00 75 1016.2
20260906104021 26 135 1.6 3.2 0.00 0.00 0.00 76 1016.2
20260906103041 25 135 1.6 3.2 0.00 0.00 0.00 76 1016.1
20260906102021 25 0.0 1.6 0.00 0.00 0.00 76 1016.1
20260906101021 26 0.0 1.6 0.00 0.00 0.00 75 1016.1
20260906100021 26 0.0 1.6 0.00 0.00 0.00 75 1016.0
20260906095021 26 0.0 1.6 0.00 0.00 0.00 75 1016.0
20260906094021 26 0.0 3.2 0.00 0.00 0.00 75 1015.9
20260906093021 26 0.0 1.6 0.00 0.00 0.00 74 1016.0
20260906092041 26 135 1.6 3.2 0.00 0.00 0.00 74 1016.0
20260906091041 26 135 1.6 3.2 0.00 0.00 0.00 75 1016.0
20260906090021 26 0.0 0.0 0.00 0.00 0.00 74 1015.7
20260906085041 26 0.0 0.0 0.00 0.00 0.00 73 1015.8
20260906084041 26 0.0 1.6 0.00 0.00 0.00 73 1015.7
20260906083101 26 0.0 1.6 0.00 0.00 0.00 72 1015.6
20260906082020 26 0.0 1.6 0.00 0.00 0.00 72 1015.6
20260906081021 26 0.0 1.6 0.00 0.00 0.00 72 1015.7
20260906080021 26 0.0 0.0 0.00 0.00 0.00 71 1015.6
20260906075021 26 0.0 0.0 0.00 0.00 0.00 71 1015.7
20260906074021 27 0.0 0.0 0.00 0.00 0.00 70 1015.6
20260906073021 27 0.0 1.6 0.00 0.00 0.00 70 1015.6
20260906072041 27 0.0 0.0 0.00 0.00 0.00 69 1015.7
20260906071021 27 0.0 1.6 0.00 0.00 0.00 68 1015.7
20260906070021 27 0.0 1.6 0.00 0.00 0.00 68 1015.7
20260906065041 28 0.0 1.6 0.00 0.00 0.00 66 1015.8
20260906064041 28 0.0 1.6 0.00 0.00 0.00 65 1015.8
20260906063020 28 0.0 1.6 0.00 0.00 0.00 64 1015.9
20260906062040 28 135 1.6 3.2 0.00 0.00 0.00 63 1016.0
20260906061021 28 135 1.6 6.4 0.00 0.00 0.00 63 1016.0
20260906060020 28 135 1.6 3.2 0.00 0.00 0.00 63 1016.0
20260906055020 29 135 1.6 3.2 0.00 0.00 0.00 63 1016.2
20260906054100 29 135 1.6 3.2 0.00 0.00 0.00 62 1016.3
20260906053040 29 135 1.6 3.2 0.00 0.00 0.00 62 1016.3
20260906052021 29 135 1.6 3.2 0.00 0.00 0.00 63 1016.3
20260906051020 29 135 1.6 3.2 0.00 0.00 0.00 63 1016.3
20260906050020 29 135 1.6 3.2 0.00 0.00 0.00 63 1016.2
20260906045021 30 135 1.6 3.2 0.00 0.00 0.00 63 1016.2
20260906044022 30 135 1.6 4.8 0.00 0.00 0.00 63 1016.3
20260906043042 30 0.0 1.6 0.00 0.00 0.00 63 1016.2
20260906042022 30 135 1.6 3.2 0.00 0.00 0.00 63 1016.1
20260906041021 30 0.0 1.6 0.00 0.00 0.00 62 1015.9
20260906040022 30 135 1.6 1.6 0.00 0.00 0.00 61 1016.0
20260906035022 30 135 1.6 6.4 0.00 0.00 0.00 61 1015.8
20260906034041 30 113 1.6 3.2 0.00 0.00 0.00 61 1015.7
20260906033021 31 113 1.6 3.2 0.00 0.00 0.00 60 1015.7
20260906032021 31 113 1.6 4.8 0.00 0.00 0.00 60 1015.6
20260906031042 31 113 1.6 8.0 0.00 0.00 0.00 60 1015.6
20260906030021 31 113 1.6 3.2 0.00 0.00 0.00 60 1015.3
20260906025021 31 113 1.6 3.2 0.00 0.00 0.00 59 1015.2
20260906024022 31 0.0 1.6 0.00 0.00 0.00 59 1015.1
20260906023022 31 113 1.6 4.8 0.00 0.00 0.00 58 1014.8
20260906022041 32 113 1.6 3.2 0.00 0.00 0.00 57 1014.8
20260906021021 32 135 1.6 4.8 0.00 0.00 0.00 57 1014.7
20260906020022 32 135 1.6 3.2 0.00 0.00 0.00 57 1014.4
20260906015022 32 0.0 3.2 0.00 0.00 0.00 56 1014.4
20260906014021 32 135 1.6 1.6 0.00 0.00 0.00 55 1014.2
20260906013021 32 135 1.6 4.8 0.00 0.00 0.00 55 1014.0
20260906012021 32 0.0 3.2 0.00 0.00 0.00 54 1013.9
20260906011021 32 270 1.6 4.8 0.00 0.00 0.00 52 1013.9
20260906010022 33 225 1.6 3.2 0.00 0.00 0.00 51 1013.8
20260906005021 33 225 1.6 3.2 0.00 0.00 0.00 49 1013.9
20260906004021 33 0.0 0.0 0.00 0.00 0.00 46 1013.7
20260906003021 34 0.0 0.0 0.00 0.00 0.00 45 1013.8
20260906002101 35 0.0 1.6 0.00 0.00 0.00 44 1013.8
20260906001021 35 0.0 1.6 0.00 0.00 0.00 43 1013.8
20260906000021 35 225 1.6 4.8 0.00 0.00 0.00 42 1013.8
20260905235021 35 225 1.6 3.2 0.00 0.00 0.00 41 1013.7
20260905234021 36 158 3.2 8.0 0.00 0.00 0.00 40 1013.8
20260905233021 36 158 3.2 6.4 0.00 0.00 0.00 40 1013.8
20260905232021 36 158 3.2 6.4 0.00 0.00 0.00 39 1013.7
20260905231021 36 158 1.6 3.2 0.00 0.00 0.00 38 1013.8
20260905230021 36 158 1.6 6.4 0.00 0.00 0.00 38 1013.7
20260905225021 36 158 1.6 8.0 0.00 0.00 0.00 38 1013.7
20260905224041 36 225 3.2 8.0 0.00 0.00 0.00 38 1013.7
20260905223021 37 225 1.6 6.4 0.00 0.00 0.00 37 1013.8
20260905222021 37 135 3.2 6.4 0.00 0.00 0.00 37 1013.9
20260905221021 37 225 3.2 6.4 0.00 0.00 0.00 36 1014.1
20260905220021 37 158 4.8 6.4 0.00 0.00 0.00 36 1014.1
20260905215021 37 225 3.2 9.7 0.00 0.00 0.00 36 1014.2
20260905214041 37 203 3.2 6.4 0.00 0.00 0.00 36 1014.3
20260905213020 37 113 4.8 11.3 0.00 0.00 0.00 36 1014.5
20260905212021 37 203 3.2 8.0 0.00 0.00 0.00 35 1014.4
20260905211021 38 315 1.6 4.8 0.00 0.00 0.00 34 1014.6
20260905210021 38 158 3.2 8.0 0.00 0.00 0.00 35 1014.7
20260905205021 37 338 4.8 9.7 0.00 0.00 0.00 34 1014.8
20260905204021 37 203 4.8 12.9 0.00 0.00 0.00 34 1015.0
20260905203021 38 180 6.4 14.5 0.00 0.00 0.00 34 1015.2
20260905202021 38 180 4.8 11.3 0.00 0.00 0.00 35 1015.3
20260905201021 38 225 3.2 8.0 0.00 0.00 0.00 36 1015.4
20260905200141 37 180 6.4 12.9 0.00 0.00 0.00 36 1015.6
20260905195021 37 158 4.8 9.7 0.00 0.00 0.00 35 1015.7
20260905194020 37 113 6.4 14.5 0.00 0.00 0.00 36 1015.7
20260905193021 37 45 3.2 6.4 0.00 0.00 0.00 38 1015.8
20260905192021 37 135 6.4 12.9 0.00 0.00 0.00 37 1015.9
20260905191021 37 158 3.2 8.0 0.00 0.00 0.00 39 1016.0
20260905190020 37 180 4.8 11.3 0.00 0.00 0.00 40 1016.0
20260905185020 36 180 3.2 8.0 0.00 0.00 0.00 40 1016.1
20260905184020 36 90 6.4 12.9 0.00 0.00 0.00 39 1016.3
20260905183020 36 158 6.4 16.1 0.00 0.00 0.00 42 1016.4
20260905182020 36 113 4.8 9.7 0.00 0.00 0.00 42 1016.6
20260905181021 36 203 6.4 17.7 0.00 0.00 0.00 43 1016.8
20260905180020 36 158 6.4 12.9 0.00 0.00 0.00 41 1017.0
20260905175021 36 158 3.2 8.0 0.00 0.00 0.00 42 1017.1
20260905174020 36 180 4.8 12.9 0.00 0.00 0.00 42 1017.1
20260905173040 36 135 4.8 11.3 0.00 0.00 0.00 43 1017.3